Weather History for Minot AFB, ND

Change the Weather History Date:

Saturday, December 8, 2012

  Actual Average Record
Temperature  
Mean Temperature 5 °F -  
Max Temperature 10 °F 27 °F 41 °F (2006)
Min Temperature -1 °F 11 °F -22 °F (2013)
Degree Days  
Heating Degree Days 60    
Moisture  
Dew Point 5 °F    
Average Humidity 85    
Maximum Humidity 92    
Minimum Humidity 78    
Precipitation  
Precipitation 0.00 in - - ()
Sea Level Pressure  
Sea Level Pressure 30.03 in    
Wind  
Wind Speed 11 mph (NE)    
Max Wind Speed 20 mph    
Max Gust Speed -    
Visibility 5 miles    
Events Fog , Snow    
Averages and records for this station are not official NWS values.
T = Trace of Precipitation, MM = Missing Value Source: NWS Daily Summary

Daily Weather History Graph

Daily Weather History Graph

Search for Another Location

Airport:

Trip Planner

Search our weather history database for the weather conditions in past years. The results will help you decide how hot, cold, wet, or windy it might be!

Date:

Astronomy

Dec. 08, 2012 Rise Set
Actual Time 8:24 AM CST 4:50 PM CST
Civil Twilight 7:48 AM CST 5:27 PM CST
Nautical Twilight 7:08 AM CST 6:06 PM CST
Astronomical Twilight 6:30 AM CST 6:44 PM CST
Moon 2:30 AM CST (12/8) 1:40 PM CST (12/8)
Length of Visible Light 9h 39m
Length of Day
8h 26m
Waning Crescent, 28% of the Moon is Illuminated
Dec 8
Waning Crescent
Dec 13
New
Dec 19
First Quarter
Dec 28
Full
Jan 4
Last Quarter

Hourly Weather History & Observations

Time (CST) Temp. Windchill Dew Point Humidity Pressure Visibility Wind Dir Wind Speed Gust Speed Precip Events Conditions
12:01 AM 10.4 °F -3.3 °F 6.8 °F 85% 30.01 in 0.8 mi East 10.4 mph - N/A Snow Light Snow
12:05 AM 10.4 °F -2.4 °F 6.8 °F 85% 30.01 in 1.0 mi East 9.2 mph - N/A Snow Light Snow
12:10 AM 10.4 °F -0.4 °F 6.8 °F 85% 30.01 in 1.0 mi East 6.9 mph - N/A Snow Light Snow
12:29 AM 10.4 °F -1.5 °F 6.8 °F 85% 30.01 in 1.0 mi East 8.1 mph - N/A Snow Light Snow
12:30 AM 10.4 °F -1.5 °F 6.8 °F 85% 30.01 in 1.0 mi East 8.1 mph - N/A Snow Light Snow
12:37 AM 10.4 °F -1.5 °F 6.8 °F 85% 30.01 in 1.2 mi ENE 8.1 mph - N/A Snow Light Snow
12:45 AM 10.4 °F -0.4 °F 6.8 °F 85% 30.01 in 1.5 mi ENE 6.9 mph - N/A Snow Light Snow
12:46 AM 10.4 °F -0.4 °F 6.8 °F 85% 30.01 in 1.2 mi ENE 6.9 mph - N/A Snow Light Snow
12:50 AM 10.4 °F -0.4 °F 6.8 °F 85% 30.01 in 1.0 mi NE 6.9 mph - N/A Snow Light Snow
12:54 AM 10.4 °F -0.4 °F 6.8 °F 85% 30.00 in 1.0 mi NE 6.9 mph - N/A Snow Light Snow
12:55 AM 10.0 °F -1.9 °F 6.8 °F 87% 30.00 in 1.0 mi NE 8.1 mph - 0.00 in Snow Light Snow
1:05 AM 10.4 °F -1.5 °F 6.8 °F 85% 30.00 in 0.8 mi NE 8.1 mph - N/A Snow Light Snow
1:06 AM 10.4 °F -1.5 °F 6.8 °F 85% 30.00 in 0.8 mi NE 8.1 mph - N/A Snow Light Snow
1:09 AM 10.4 °F -1.5 °F 6.8 °F 85% 30.00 in 0.5 mi NE 8.1 mph - N/A Fog , Snow Light Freezing Fog
1:11 AM 10.4 °F -1.5 °F 6.8 °F 85% 30.00 in 0.5 mi NE 8.1 mph - N/A Fog , Snow Light Freezing Fog
1:14 AM 10.4 °F -1.5 °F 6.8 °F 85% 29.99 in 0.5 mi NE 8.1 mph - N/A Fog , Snow Light Freezing Fog
1:15 AM 10.4 °F -1.5 °F 6.8 °F 85% 29.99 in 0.5 mi NE 8.1 mph - N/A Fog , Snow Light Freezing Fog
1:17 AM 10.4 °F -1.5 °F 6.8 °F 85% 29.99 in 0.2 mi NE 8.1 mph - N/A Fog , Snow Light Freezing Fog
1:19 AM 10.4 °F -1.5 °F 6.8 °F 85% 29.99 in 0.2 mi NE 8.1 mph - N/A Fog , Snow Light Freezing Fog
1:22 AM 10.4 °F -2.4 °F 6.8 °F 85% 29.99 in 0.2 mi NE 9.2 mph - N/A Fog , Snow Light Freezing Fog
1:23 AM 10.4 °F -2.4 °F 6.8 °F 85% 29.99 in 0.2 mi NE 9.2 mph - N/A Fog , Snow Light Freezing Fog
1:24 AM 10.4 °F -1.5 °F 6.8 °F 85% 29.99 in 0.5 mi NE 8.1 mph - N/A Fog , Snow Light Freezing Fog
1:30 AM 10.4 °F -2.4 °F 6.8 °F 85% 29.99 in 0.5 mi NE 9.2 mph - N/A Fog , Snow Light Freezing Fog
1:34 AM 10.4 °F -2.4 °F 6.8 °F 85% 29.98 in 0.8 mi NE 9.2 mph - N/A Snow Light Snow
1:37 AM 10.4 °F -2.4 °F 6.8 °F 85% 29.98 in 0.8 mi NE 9.2 mph - N/A Snow Light Snow
1:38 AM 10.4 °F -1.5 °F 6.8 °F 85% 29.98 in 0.8 mi NNE 8.1 mph - N/A Snow Light Snow
1:39 AM 10.4 °F -2.4 °F 6.8 °F 85% 29.98 in 1.0 mi NNE 9.2 mph - N/A Snow Light Snow
1:41 AM 10.4 °F -2.4 °F 6.8 °F 85% 29.98 in 1.0 mi NE 9.2 mph - N/A Snow Light Snow
1:42 AM 10.4 °F -2.4 °F 6.8 °F 85% 29.98 in 1.2 mi NE 9.2 mph - N/A Snow Light Snow
1:44 AM 10.4 °F -2.4 °F 6.8 °F 85% 29.98 in 1.5 mi NE 9.2 mph - N/A Snow Light Snow
1:46 AM 10.4 °F -2.4 °F 6.8 °F 85% 29.98 in 1.8 mi NE 9.2 mph - N/A Snow Light Snow
1:49 AM 10.4 °F -2.4 °F 6.8 °F 85% 29.98 in 2.0 mi NE 9.2 mph - N/A Snow Light Snow
1:53 AM 8.6 °F -4.7 °F 6.8 °F 92% 29.97 in 1.8 mi NE 9.2 mph - N/A Snow Light Snow
1:55 AM 9.3 °F -5.4 °F 6.1 °F 87% 29.98 in 1.8 mi NE 11.5 mph - 0.00 in Snow Light Snow
1:59 AM 8.6 °F -5.5 °F 6.8 °F 92% 29.97 in 1.5 mi NE 10.4 mph - N/A Snow Light Snow
2:01 AM 8.6 °F -4.7 °F 6.8 °F 92% 29.97 in 1.8 mi NE 9.2 mph - N/A Snow Light Snow
2:03 AM 8.6 °F -5.5 °F 6.8 °F 92% 29.97 in 2.0 mi NE 10.4 mph - N/A Snow Light Snow
2:06 AM 8.6 °F -5.5 °F 6.8 °F 92% 29.97 in 3.0 mi NE 10.4 mph - N/A Snow Light Snow
2:08 AM 8.6 °F -5.5 °F 6.8 °F 92% 29.97 in 4.0 mi NE 10.4 mph - N/A Snow Light Snow
2:13 AM 8.6 °F -5.5 °F 6.8 °F 92% 29.97 in 7.0 mi NE 10.4 mph - N/A Snow Light Snow
2:22 AM 10.4 °F -3.3 °F 6.8 °F 85% 29.97 in 10.0 mi ENE 10.4 mph - N/A Snow Light Snow
2:55 AM 10.2 °F -5.0 °F 7.2 °F 87% 29.97 in 10.0 mi ENE 12.7 mph - 0.00 in   Overcast
3:24 AM 10.4 °F -5.4 °F 6.8 °F 85% 29.96 in 5.0 mi ENE 13.8 mph - N/A   Light Freezing Rain
3:35 AM 10.4 °F -4.8 °F 8.6 °F 92% 29.96 in 10.0 mi East 12.7 mph - N/A   Light Freezing Rain
3:36 AM 10.4 °F -4.8 °F 8.6 °F 92% 29.96 in 10.0 mi East 12.7 mph - N/A   Light Freezing Rain
3:40 AM 10.4 °F -5.4 °F 6.8 °F 85% 29.96 in 8.0 mi East 13.8 mph - N/A   Light Freezing Rain
3:44 AM 10.4 °F -6.0 °F 6.8 °F 85% 29.96 in 8.0 mi East 15.0 mph - N/A   Light Freezing Rain
3:45 AM 10.4 °F -5.4 °F 6.8 °F 85% 29.96 in 8.0 mi East 13.8 mph - N/A   Light Freezing Rain
3:55 AM 10.6 °F -5.8 °F 7.3 °F 87% 29.96 in 10.0 mi ENE 15.0 mph - 0.00 in   Light Freezing Rain
4:55 AM 9.3 °F -4.6 °F 5.7 °F 85% 29.96 in 9.0 mi ENE 10.4 mph - 0.00 in   Overcast
5:55 AM 8.4 °F -6.5 °F 4.6 °F 85% 29.96 in 10.0 mi ENE 11.5 mph - 0.00 in Snow Light Snow
6:55 AM 7.7 °F -6.6 °F 3.9 °F 85% 29.97 in 10.0 mi ENE 10.4 mph - 0.00 in   Overcast
6:58 AM 8.6 °F -5.5 °F 5.0 °F 85% 29.97 in 10.0 mi ENE 10.4 mph - N/A   Overcast
6:59 AM 8.6 °F -4.7 °F 5.0 °F 85% 29.97 in 10.0 mi ENE 9.2 mph - N/A   Overcast
7:03 AM 6.8 °F -6.9 °F 3.2 °F 85% 29.97 in 10.0 mi ENE 9.2 mph - N/A   Overcast
7:07 AM 6.8 °F -7.8 °F 3.2 °F 85% 29.98 in 10.0 mi ENE 10.4 mph - N/A   Overcast
7:28 AM 6.8 °F -8.6 °F 5.0 °F 92% 29.98 in 10.0 mi ENE 11.5 mph - N/A   Overcast
7:43 AM 6.8 °F -6.9 °F 5.0 °F 92% 29.98 in 10.0 mi ENE 9.2 mph - N/A   Overcast
7:48 AM 6.8 °F -7.8 °F 5.0 °F 92% 29.98 in 10.0 mi ENE 10.4 mph - N/A   Overcast
7:54 AM 6.8 °F -6.9 °F 5.0 °F 92% 29.98 in 10.0 mi ENE 9.2 mph - N/A Snow Light Snow
7:55 AM 7.2 °F -5.4 °F 4.1 °F 87% 29.98 in 10.0 mi ENE 8.1 mph - 0.00 in Snow Light Snow
8:11 AM 6.8 °F -6.9 °F 5.0 °F 92% 29.99 in 10.0 mi ENE 9.2 mph - N/A   Overcast
8:12 AM 6.8 °F -5.9 °F 5.0 °F 92% 29.99 in 10.0 mi ENE 8.1 mph - N/A   Overcast
8:14 AM 6.8 °F -7.8 °F 3.2 °F 85% 29.99 in 10.0 mi ENE 10.4 mph - N/A   Overcast
8:55 AM 7.5 °F -8.4 °F 4.6 °F 88% 29.99 in 6.0 mi NE 12.7 mph - 0.00 in Snow Blowing Snow
9:55 AM 7.9 °F -6.4 °F 4.8 °F 87% 30.00 in 8.0 mi NE 10.4 mph - 0.00 in   Overcast
10:55 AM 8.4 °F -6.5 °F 4.8 °F 85% 30.02 in 7.0 mi NE 11.5 mph - 0.00 in Snow Blowing Snow
10:57 AM 8.6 °F -6.3 °F 5.0 °F 85% 30.02 in 2.0 mi NE 11.5 mph - N/A Snow Blowing Snow
10:58 AM 8.6 °F -6.3 °F 5.0 °F 85% 30.02 in 1.8 mi NE 11.5 mph - N/A Snow Blowing Snow
11:06 AM 8.6 °F -6.3 °F 5.0 °F 85% 30.03 in 2.0 mi NE 11.5 mph - N/A Snow Blowing Snow
11:07 AM 8.6 °F -7.0 °F 5.0 °F 85% 30.03 in 4.0 mi NE 12.7 mph - N/A Snow Blowing Snow
11:55 AM 9.3 °F -6.8 °F 4.8 °F 82% 30.01 in 6.0 mi NE 13.8 mph - 0.00 in Snow Blowing Snow
12:06 PM 8.6 °F -7.7 °F 5.0 °F 85% 30.02 in 2.5 mi North 13.8 mph - N/A Snow Light Snow
12:13 PM 8.6 °F -6.3 °F 5.0 °F 85% 30.02 in 1.8 mi North 11.5 mph - N/A Snow Light Snow
12:36 PM 8.6 °F -7.7 °F 5.0 °F 85% 30.02 in 1.2 mi NNE 13.8 mph - N/A Snow Light Snow
12:37 PM 8.6 °F -7.7 °F 5.0 °F 85% 30.02 in 0.8 mi NNE 13.8 mph - N/A Snow Light Snow
12:38 PM 8.6 °F -7.7 °F 5.0 °F 85% 30.02 in 0.5 mi NNE 13.8 mph - N/A Snow Snow
12:47 PM 8.6 °F -8.9 °F 5.0 °F 85% 30.02 in 1.0 mi NNE 16.1 mph - N/A Snow Light Snow
12:48 PM 8.6 °F -8.9 °F 5.0 °F 85% 30.02 in 1.2 mi NNE 16.1 mph - N/A Snow Light Snow
12:49 PM 8.6 °F -8.9 °F 5.0 °F 85% 30.02 in 1.5 mi NNE 16.1 mph - N/A Snow Light Snow
12:55 PM 8.4 °F -9.2 °F 4.5 °F 84% 30.03 in 2.0 mi North 16.1 mph - 0.00 in Snow Light Snow
1:01 PM 8.6 °F -8.9 °F 5.0 °F 85% 30.03 in 2.5 mi NNE 16.1 mph - N/A Snow Light Snow
1:19 PM 8.6 °F -8.3 °F 3.2 °F 79% 30.03 in 1.8 mi NNE 15.0 mph - N/A Snow Light Snow
1:26 PM 8.6 °F -8.9 °F 3.2 °F 79% 30.03 in 2.0 mi NNE 16.1 mph - N/A Snow Light Snow
1:36 PM 6.8 °F -11.3 °F 3.2 °F 85% 30.04 in 1.8 mi NNE 16.1 mph - N/A Snow Light Snow
1:43 PM 6.8 °F -10.7 °F 3.2 °F 85% 30.04 in 1.5 mi NNE 15.0 mph - N/A Snow Light Snow
1:47 PM 6.8 °F -10.7 °F 3.2 °F 85% 30.04 in 2.0 mi NNE 15.0 mph - N/A Snow Light Snow
1:50 PM 6.8 °F -10.7 °F 3.2 °F 85% 30.04 in 3.0 mi NNE 15.0 mph - N/A Snow Light Snow
1:55 PM 7.5 °F -9.7 °F 3.2 °F 82% 30.04 in 3.0 mi NNE 15.0 mph - 0.00 in Snow Light Snow
1:58 PM 6.8 °F -10.7 °F 3.2 °F 85% 30.04 in 4.0 mi NNE 15.0 mph - N/A Snow Light Snow
2:01 PM 6.8 °F -10.0 °F 3.2 °F 85% 30.04 in 4.0 mi NNE 13.8 mph - N/A Snow Light Snow
2:04 PM 6.8 °F -10.7 °F 3.2 °F 85% 30.04 in 4.0 mi North 15.0 mph - N/A Snow Light Snow
2:06 PM 6.8 °F -11.3 °F 3.2 °F 85% 30.04 in 1.5 mi NNE 16.1 mph - N/A Snow Light Snow
2:07 PM 6.8 °F -10.7 °F 3.2 °F 85% 30.04 in 1.2 mi NNE 15.0 mph - N/A Snow Light Snow
2:09 PM 6.8 °F -11.8 °F 3.2 °F 85% 30.04 in 1.2 mi North 17.3 mph - N/A Snow Light Snow
2:16 PM 6.8 °F -11.8 °F 3.2 °F 85% 30.04 in 2.0 mi NNE 17.3 mph - N/A Snow Light Snow
2:18 PM 6.8 °F -11.3 °F 3.2 °F 85% 30.04 in 3.0 mi NNE 16.1 mph - N/A Snow Light Snow
2:26 PM 6.8 °F -11.3 °F 3.2 °F 85% 30.04 in 3.0 mi NNE 16.1 mph - N/A Snow Light Snow
2:55 PM 7.2 °F -10.2 °F 3.0 °F 83% 30.05 in 3.0 mi NNE 15.0 mph - 0.00 in Snow Light Snow
3:26 PM 6.8 °F -11.8 °F 3.2 °F 85% 30.07 in 9.0 mi NNE 17.3 mph - N/A Snow Light Snow
3:50 PM 6.8 °F -12.9 °F 3.2 °F 85% 30.09 in 10.0 mi NNE 19.6 mph - N/A   Light Freezing Rain
3:55 PM 7.0 °F -12.1 °F 2.3 °F 81% 30.09 in 10.0 mi NNE 18.4 mph - 0.00 in   Overcast
3:58 PM 6.8 °F -12.4 °F 1.4 °F 79% 30.10 in 10.0 mi NNE 18.4 mph - N/A   Overcast
4:04 PM 6.8 °F -11.3 °F 1.4 °F 79% 30.10 in 10.0 mi NNE 16.1 mph - N/A   Mostly Cloudy
4:06 PM 6.8 °F -11.3 °F 1.4 °F 79% 30.11 in 10.0 mi NNE 16.1 mph - N/A   Mostly Cloudy
4:43 PM 5.0 °F -14.7 °F 1.4 °F 85% 30.14 in 10.0 mi NNE 18.4 mph - N/A   Partly Cloudy
4:55 PM 5.4 °F -13.1 °F 0.9 °F 82% 30.15 in 10.0 mi NNE 16.1 mph - N/A   Clear
5:06 PM 5.0 °F -13.6 °F 1.4 °F 85% 30.15 in 9.0 mi NNE 16.1 mph - N/A   Partly Cloudy
5:55 PM 3.9 °F -16.1 °F -0.4 °F 82% 30.19 in 10.0 mi NNE 18.4 mph - 0.00 in   Scattered Clouds
5:56 PM 3.2 °F -17.6 °F -0.4 °F 85% 30.19 in 10.0 mi NNE 19.6 mph - N/A   Mostly Cloudy
5:58 PM 3.2 °F -17.1 °F -0.4 °F 85% 30.19 in 10.0 mi NNE 18.4 mph - N/A   Scattered Clouds
6:03 PM 3.2 °F -15.9 °F -0.4 °F 85% 30.20 in 10.0 mi NNE 16.1 mph - N/A   Mostly Cloudy
6:26 PM 5.0 °F -14.7 °F -0.4 °F 78% 30.21 in 10.0 mi North 18.4 mph - N/A   Scattered Clouds
6:55 PM 3.6 °F -16.6 °F -0.9 °F 82% 30.23 in 10.0 mi NNE 18.4 mph - N/A   Partly Cloudy
7:55 PM 2.7 °F -16.0 °F -1.8 °F 81% 30.26 in 10.0 mi North 15.0 mph - N/A   Clear
8:55 PM 1.8 °F -18.4 °F -3.1 °F 80% 30.29 in 10.0 mi North 17.3 mph - N/A   Clear
9:55 PM 0.5 °F -17.3 °F -4.4 °F 80% 30.31 in 10.0 mi North 12.7 mph - N/A   Clear
10:55 PM -0.6 °F -18.6 °F -5.4 °F 80% 30.34 in 10.0 mi North 12.7 mph - N/A   Clear
11:55 PM -1.7 °F -18.3 °F -6.3 °F 80% 30.38 in 10.0 mi NNW 10.4 mph - N/A   Clear